Time,TemperatureF,DewpointF,PressureIn,WindDirection,WindDirectionDegrees,WindSpeedMPH,WindSpeedGustMPH,Humidity,HourlyPrecipIn,Conditions,Clouds,dailyrainin,SoftwareType,DateUTC
2013-03-09 10:21:00,46.0,44.0,29.77,SSW,207,0.0,0.0,92,-99.99,,,-99.99,,2013-03-09 16:21:00,
2013-03-09 10:32:00,46.0,44.0,29.76,South,171,0.0,0.0,92,-99.99,,,-99.99,,2013-03-09 16:32:00,
2013-03-09 10:42:00,46.0,44.0,29.76,South,171,0.0,0.0,92,-99.99,,,-99.99,,2013-03-09 16:42:00,
2013-03-09 10:51:00,46.0,44.0,29.76,SW,215,0.0,0.0,92,-99.99,,,-99.99,,2013-03-09 16:51:00,
2013-03-09 11:01:00,47.0,45.0,29.75,SSE,154,0.0,0.0,93,-99.99,,,-99.99,,2013-03-09 17:01:00,
2013-03-09 11:11:00,47.0,45.0,29.75,SSE,154,0.0,0.0,93,-99.99,,,-99.99,,2013-03-09 17:11:00,
2013-03-09 11:22:00,47.0,45.0,29.73,SSE,154,5.0,5.0,93,0.13,,,-99.99,,2013-03-09 17:22:00,
2013-03-09 11:32:00,47.0,45.0,29.72,ESE,112,0.0,0.0,93,0.15,,,-99.99,,2013-03-09 17:32:00,
2013-03-09 11:42:00,47.0,45.0,29.72,ESE,112,0.0,0.0,93,0.15,,,-99.99,,2013-03-09 17:42:00,
2013-03-09 11:52:00,47.0,45.0,29.72,ESE,112,0.0,0.0,94,0.14,,,-99.99,,2013-03-09 17:52:00,
2013-03-09 12:01:00,47.0,45.0,29.72,ESE,113,0.0,0.0,94,0.14,,,-99.99,,2013-03-09 18:01:00,
2013-03-09 12:11:00,47.0,45.0,29.72,ESE,113,0.0,0.0,94,0.14,,,-99.99,,2013-03-09 18:11:00,
2013-03-09 12:21:00,47.0,45.0,29.72,SSW,209,0.0,0.0,94,0.13,,,-99.99,,2013-03-09 18:21:00,
2013-03-09 12:32:00,47.0,45.0,29.72,SSW,209,0.0,0.0,94,0.13,,,-99.99,,2013-03-09 18:32:00,
2013-03-09 12:42:00,47.0,45.0,29.72,SSW,209,0.0,0.0,94,0.13,,,-99.99,,2013-03-09 18:42:00,
2013-03-09 12:52:00,47.0,45.0,29.70,SSW,209,2.0,2.0,94,0.13,,,-99.99,,2013-03-09 18:52:00,
2013-03-09 13:01:00,47.0,45.0,29.69,SSW,208,0.0,0.0,94,0.11,,,-99.99,,2013-03-09 19:01:00,
2013-03-09 13:11:00,47.0,45.0,29.69,SSW,208,0.0,0.0,94,0.11,,,-99.99,,2013-03-09 19:11:00,
2013-03-09 13:22:00,47.0,45.0,29.68,SSE,147,0.0,0.0,94,0.10,,,-99.99,,2013-03-09 19:22:00,
2013-03-09 13:32:00,47.0,46.0,29.68,SSE,147,0.0,0.0,95,0.11,,,-99.99,,2013-03-09 19:32:00,
2013-03-09 13:42:00,47.0,46.0,29.68,SSE,147,0.0,0.0,95,0.11,,,-99.99,,2013-03-09 19:42:00,
2013-03-09 13:51:00,47.0,46.0,29.68,SSE,147,0.0,0.0,95,0.14,,,-99.99,,2013-03-09 19:51:00,
2013-03-09 14:01:00,47.0,46.0,29.66,SSE,147,0.0,0.0,95,0.16,,,-99.99,,2013-03-09 20:01:00,
2013-03-09 14:11:00,47.0,46.0,29.66,SSE,147,0.0,0.0,95,0.16,,,-99.99,,2013-03-09 20:11:00,
2013-03-09 14:21:00,48.0,47.0,29.65,SSE,147,0.0,0.0,95,0.18,,,-99.99,,2013-03-09 20:21:00,
2013-03-09 14:32:00,49.0,48.0,29.65,SSE,147,0.0,0.0,95,0.18,,,-99.99,,2013-03-09 20:32:00,
2013-03-09 14:42:00,49.0,48.0,29.65,SSE,147,0.0,0.0,95,0.18,,,-99.99,,2013-03-09 20:42:00,
2013-03-09 14:52:00,50.0,49.0,29.63,SSE,147,0.0,0.0,95,0.15,,,-99.99,,2013-03-09 20:52:00,
2013-03-09 15:02:00,50.0,49.0,29.66,ESE,123,0.0,0.0,95,0.10,,,-99.99,,2013-03-09 21:02:00,
2013-03-09 15:12:00,50.0,49.0,29.66,ESE,123,0.0,0.0,95,0.10,,,-99.99,,2013-03-09 21:12:00,
2013-03-09 15:21:00,50.0,49.0,29.66,SSE,156,0.0,0.0,95,0.08,,,-99.99,,2013-03-09 21:21:00,
2013-03-09 15:32:00,51.0,50.0,29.66,South,169,6.0,6.0,96,0.06,,,-99.99,,2013-03-09 21:32:00,
2013-03-09 15:42:00,51.0,50.0,29.66,South,169,6.0,6.0,96,0.06,,,-99.99,,2013-03-09 21:42:00,
2013-03-09 15:52:00,52.0,51.0,29.66,SSE,159,12.0,12.0,95,0.03,,,-99.99,,2013-03-09 21:52:00,
2013-03-09 16:01:00,52.0,51.0,29.67,SSE,157,10.0,10.0,95,0.06,,,-99.99,,2013-03-09 22:01:00,
2013-03-09 16:11:00,52.0,51.0,29.67,SSE,157,10.0,10.0,95,0.06,,,-99.99,,2013-03-09 22:11:00,
2013-03-09 16:21:00,52.0,51.0,29.66,South,171,0.0,0.0,95,0.07,,,-99.99,,2013-03-09 22:21:00,
2013-03-09 16:32:00,53.0,52.0,29.65,South,170,0.0,0.0,95,0.05,,,-99.99,,2013-03-09 22:32:00,
2013-03-09 16:42:00,53.0,52.0,29.65,South,170,0.0,0.0,95,0.05,,,-99.99,,2013-03-09 22:42:00,
2013-03-09 16:51:00,53.0,52.0,29.67,SSE,166,0.0,0.0,95,0.05,,,-99.99,,2013-03-09 22:51:00,
2013-03-09 17:01:00,53.0,52.0,29.66,South,169,0.0,0.0,95,0.08,,,-99.99,,2013-03-09 23:01:00,
2013-03-09 17:11:00,53.0,52.0,29.66,South,169,0.0,0.0,95,0.08,,,-99.99,,2013-03-09 23:11:00,
2013-03-09 17:21:00,53.0,52.0,29.65,South,169,5.0,5.0,95,0.07,,,-99.99,,2013-03-09 23:21:00,
2013-03-09 17:32:00,53.0,52.0,29.65,SSE,167,0.0,0.0,95,0.11,,,-99.99,,2013-03-09 23:32:00,
2013-03-09 17:42:00,53.0,52.0,29.65,SSE,167,0.0,0.0,95,0.11,,,-99.99,,2013-03-09 23:42:00,
2013-03-09 17:52:00,53.0,52.0,29.63,SSE,167,0.0,0.0,95,0.12,,,-99.99,,2013-03-09 23:52:00,
2013-03-09 18:01:00,53.0,52.0,29.63,SSE,167,0.0,0.0,95,0.13,,,-99.99,,2013-03-10 00:01:00,
2013-03-09 18:11:00,53.0,52.0,29.63,SSE,167,0.0,0.0,95,0.13,,,-99.99,,2013-03-10 00:11:00,
2013-03-09 18:22:00,53.0,52.0,29.64,SSE,166,5.0,5.0,95,0.11,,,-99.99,,2013-03-10 00:22:00,
2013-03-09 18:32:00,54.0,53.0,29.65,SSE,160,0.0,0.0,95,0.14,,,-99.99,,2013-03-10 00:32:00,
2013-03-09 18:42:00,54.0,53.0,29.65,SSE,160,0.0,0.0,95,0.14,,,-99.99,,2013-03-10 00:42:00,
2013-03-09 18:52:00,53.0,52.0,29.61,SSE,160,0.0,0.0,95,0.10,,,-99.99,,2013-03-10 00:52:00,
2013-03-09 19:01:00,53.0,52.0,29.62,SSE,160,1.0,1.0,95,0.10,,,-99.99,,2013-03-10 01:01:00,
2013-03-09 19:11:00,53.0,52.0,29.62,SSE,160,1.0,1.0,95,0.10,,,-99.99,,2013-03-10 01:11:00,
2013-03-09 19:21:00,52.0,51.0,29.61,SSE,160,0.0,0.0,95,0.08,,,-99.99,,2013-03-10 01:21:00,
2013-03-09 19:31:00,52.0,51.0,29.58,South,173,0.0,0.0,96,0.08,,,-99.99,,2013-03-10 01:31:00,
2013-03-09 19:41:00,52.0,51.0,29.58,South,173,0.0,0.0,96,0.08,,,-99.99,,2013-03-10 01:41:00,
2013-03-09 19:52:00,52.0,51.0,29.57,ENE,59,0.0,0.0,96,0.03,,,-99.99,,2013-03-10 01:52:00,
2013-03-09 20:01:00,52.0,51.0,29.57,SE,125,2.0,2.0,96,0.02,,,-99.99,,2013-03-10 02:01:00,
2013-03-09 20:11:00,52.0,51.0,29.57,SE,125,2.0,2.0,96,0.02,,,-99.99,,2013-03-10 02:11:00,
2013-03-09 20:22:00,52.0,51.0,29.57,SSE,157,0.0,0.0,96,0.01,,,-99.99,,2013-03-10 02:22:00,
2013-03-09 20:32:00,53.0,52.0,29.59,SSE,157,3.0,3.0,96,0.01,,,-99.99,,2013-03-10 02:32:00,
2013-03-09 20:42:00,53.0,52.0,29.59,SSE,157,3.0,3.0,96,0.01,,,-99.99,,2013-03-10 02:42:00,
2013-03-09 20:52:00,53.0,52.0,29.60,SSE,161,0.0,0.0,96,0.00,,,-99.99,,2013-03-10 02:52:00,
2013-03-09 21:01:00,53.0,52.0,29.59,SSE,161,0.0,0.0,96,0.00,,,-99.99,,2013-03-10 03:01:00,
2013-03-09 21:11:00,53.0,52.0,29.58,SSE,161,0.0,0.0,96,0.00,,,-99.99,,2013-03-10 03:11:00,
2013-03-09 21:22:00,53.0,52.0,29.58,SSE,161,0.0,0.0,96,0.00,,,-99.99,,2013-03-10 03:22:00,
2013-03-09 21:32:00,53.0,52.0,29.57,SSE,161,0.0,0.0,96,0.00,,,-99.99,,2013-03-10 03:32:00,
2013-03-09 21:42:00,53.0,52.0,29.57,SSE,161,0.0,0.0,96,0.00,,,-99.99,,2013-03-10 03:42:00,
2013-03-09 21:52:00,52.0,51.0,29.54,ESE,106,0.0,0.0,96,0.00,,,-99.99,,2013-03-10 03:52:00,
2013-03-09 22:01:00,53.0,52.0,29.55,East,90,0.0,0.0,96,0.00,,,-99.99,,2013-03-10 04:01:00,
2013-03-09 22:11:00,53.0,52.0,29.55,East,90,0.0,0.0,96,0.00,,,-99.99,,2013-03-10 04:11:00,
2013-03-09 22:21:00,53.0,52.0,29.54,East,90,0.0,0.0,96,0.00,,,-99.99,,2013-03-10 04:21:00,
2013-03-09 22:32:00,53.0,52.0,29.56,South,181,0.0,0.0,96,0.00,,,-99.99,,2013-03-10 04:32:00,
2013-03-09 22:42:00,53.0,52.0,29.56,South,181,0.0,0.0,96,0.00,,,-99.99,,2013-03-10 04:42:00,
2013-03-09 22:51:00,54.0,53.0,29.60,South,181,0.0,0.0,96,0.00,,,-99.99,,2013-03-10 04:51:00,
2013-03-09 23:01:00,55.0,54.0,29.60,South,178,5.0,5.0,96,0.00,,,-99.99,,2013-03-10 05:01:00,
2013-03-09 23:11:00,55.0,54.0,29.60,South,178,5.0,5.0,96,0.00,,,-99.99,,2013-03-10 05:11:00,
2013-03-09 23:22:00,55.0,54.0,29.60,South,180,9.0,9.0,96,0.00,,,-99.99,,2013-03-10 05:22:00,
2013-03-09 23:31:00,55.0,54.0,29.60,South,172,0.0,0.0,96,0.00,,,-99.99,,2013-03-10 05:31:00,
2013-03-09 23:42:00,55.0,54.0,29.59,South,172,0.0,0.0,96,0.00,,,-99.99,,2013-03-10 05:42:00,
2013-03-09 23:52:00,55.0,54.0,29.59,South,172,0.0,0.0,96,0.00,,,-99.99,,2013-03-10 05:52:00,